Regional Weather Roundup
Issued by NWS

Home | Current Version | Previous Version | Graphics & Text | Print | Product List | Glossary On
Versions: 1 2 3 4 5 6 7 8 9 10 11 12 13 14 15 16 17 18 19 20 21 22 23 24 25 26 27 28 29 30 31 32 33 34 35 36 37 38 39 40 41 42 43 44 45 46 47 48 49 50
847
ASUS43 KDMX 110301
RWRIA

WEATHER ROUNDUP FOR IOWA
NATIONAL WEATHER SERVICE DES MOINES IA
900 PM CST SUN DEC 10 2017

NOTE: "FAIR" INDICATES FEW OR NO CLOUDS BELOW 12,000 FEET WITH NO
SIGNIFICANT WEATHER AND/OR OBSTRUCTIONS TO VISIBILITY.

* - THESE STATIONS ARE NOT NWS STATIONS...THUS NOT UNDER NWS
QUALITY CONTROL.  THEY ALSO DO NOT REPORT WEATHER SUCH
AS PRECIPITATION OR FOG.

IAZ001>003-012>014-020>022-031>034-043>046-110400-
   NORTHWEST IOWA

CITY           SKY/WX    TMP DP  RH WIND       PRES   REMARKS
CARROLL *      CLOUDY    30  21  69 W7        30.05F WCI  23
DENISON *      CLOUDY    32  23  69 CALM      30.07F
LE MARS *      PTCLDY    32  27  80 S5        30.03F WCI  27
ORANGE CITY *  PTCLDY    36  30  80 S5        30.01F WCI  32
SHELDON *      CLOUDY    34  28  80 CALM      30.00F
SIOUX CITY     CLOUDY    30  21  69 CALM      30.05F
SPENCER        CLOUDY    32  27  81 SW3       30.01F
STORM LAKE *   CLOUDY    34  25  69 W8        30.03F WCI  27
$$

IAZ055>058-069>071-079>083-090>094-110400-
   SOUTHWEST IOWA

CITY           SKY/WX    TMP DP  RH WIND       PRES   REMARKS
ATLANTIC *     CLEAR     27  21  80 CALM      30.08S
AUDUBON *      CLOUDY    27  19  74 CALM      30.06F
CLARINDA *     CLEAR     27  23  86 CALM      30.12
COUNCIL BLFS * CLOUDY    43  27  52 SW5       30.09S
CRESTON *      CLEAR     36  25  64 CALM      30.09S
HARLAN  *      CLOUDY    28  21  74 S5        30.10F WCI  23
LAMONI         CLEAR     38  24  57 W5        30.09S WCI  34
RED OAK *      CLOUDY    27  21  80 CALM      30.10S
SHENANDOAH *   CLEAR     32  23  69 CALM      30.11F
$$

IAZ047>049-059>061-072>074-084-110400-
   CENTRAL IOWA

CITY           SKY/WX    TMP DP  RH WIND       PRES   REMARKS
AMES           PTCLDY    28  21  75 W3        30.07F
ANKENY *       CLEAR     30  23  74 S3        30.09S
BOONE *        CLOUDY    34  25  69 CALM      30.04F
CHARITON *     CLEAR     37  25  60 CALM      30.08S
DES MOINES     MOCLDY    36  24  62 SW3       30.08F
GRINNELL*      CLOUDY    33  24  68 CALM      30.09S
KNOXVILLE *    CLEAR     32  21  64 CALM      30.07F
MARSHALLTOWN   CLOUDY    31  22  69 CALM      30.06F
NEWTON *       CLOUDY    36  25  64 CALM      30.08S
PELLA *        CLOUDY    35  25  65 NW3       30.10S
$$

IAZ004>006-015-016-023>025-035-036-110400-
   NORTH CENTRAL IOWA

CITY           SKY/WX    TMP DP  RH WIND       PRES   REMARKS
ALGONA *       CLOUDY    32  25  74 CALM      30.01F
CLARION *      CLOUDY    30  23  74 SE3       30.04F
ESTHERVILLE    CLOUDY    30  27  88 S3        30.01F
FORT DODGE *   PTCLDY    29  23  78 CALM      30.05F
MASON CITY     CLOUDY    29  22  75 S3        30.05F
FOREST CITY *  CLOUDY    32  27  80 SW3       30.03F
IOWA FALLS *   CLOUDY    33  24  69 CALM      30.06F
$$

IAZ007>011-017>019-026>030-037>042-050>054-066-110400-
   NORTHEAST IOWA

CITY           SKY/WX    TMP DP  RH WIND       PRES   REMARKS
CEDAR RAPIDS   CLOUDY    28  22  78 E3        30.08S
CHARLES CITY * CLOUDY    25  23  93 CALM      30.06F
CLINTON *      CLOUDY    23  20  88 W3        30.10S
DECORAH *      CLOUDY    27  21  80 CALM      30.04F
DUBUQUE        CLEAR     20  16  84 CALM      30.06F
MONTICELLO *   CLOUDY    19  16  86 CALM      30.08S
OELWEIN *      CLOUDY    23  21  93 E3        30.06F
WATERLOO       CLOUDY    28  21  75 CALM      30.07F
$$

IAZ064-065-067-068-078-110400-
   EAST CENTRAL IOWA

CITY           SKY/WX    TMP DP  RH WIND       PRES   REMARKS
DAVENPORT      CLOUDY    23  19  85 CALM      30.12S
IOWA CITY      CLOUDY    30  23  75 NE3       30.12R
MT. PLEASANT * CLOUDY    31  22  68 CALM      30.10S
MUSCATINE *    CLOUDY    27  21  80 CALM      30.12S
QUAD CITIES    CLOUDY    23  18  81 CALM      30.10S
$$

IAZ062-063-075>077-085>089-095>099-110400-
   SOUTHEAST IOWA

CITY           SKY/WX    TMP DP  RH WIND       PRES   REMARKS
BURLINGTON     CLOUDY    29  22  75 CALM      30.10S
FAIRFIELD *    CLOUDY    30  23  74 CALM      30.09R
KEOKUK *       CLOUDY    32  23  69 CALM      30.10S
OTTUMWA        CLOUDY    34  25  69 CALM      30.09S
WASHINGTON *   CLOUDY    30  23  74 CALM      30.11R
$$

ABBREVIATIONS USED IN REMARKS
   TC - TEMPERATURES IN CELSIUS
  WCI - WIND CHILL INDEX
   HX - HEAT INDEX
  VSB - VISIBILITY
$$





USA.gov is the U.S. government's official web portal to all federal, state and local government web resources and services.